Regional Weather Roundup
Issued by NWS

Home | Current Version | Previous Version | Graphics & Text | Print | Product List | Glossary On
Versions: 1 2 3 4 5 6 7 8 9 10 11 12 13 14 15 16 17 18 19 20 21 22 23 24 25 26 27 28 29 30 31 32 33 34 35 36 37 38 39 40 41 42 43 44 45 46 47 48 49 50
000
ASUS43 KMPX 051310
RWRMN
WEATHER ROUNDUP FOR MINNESOTA
NATIONAL WEATHER SERVICE TWIN CITIES/CHANHASSEN MN
700 AM CST THU MAR 05 2015


NOTE: "FAIR" INDICATES FEW OR NO CLOUDS BELOW 12,000 FEET WITH NO
SIGNIFICANT WEATHER AND/OR OBSTRUCTIONS TO VISIBILITY. N/A MEANS
CURRENT SKY AND/OR WEATHER CONDITIONS ARE NOT AVAILABLE.

MNZ060>063-068>070-051400-
   Twin Cities Metro

CITY           SKY/WX    TMP DP  RH WIND       PRES   REMARKS
TWIN CITIES    CLEAR     -6 -12  75 W3        30.49R
ST PAUL        CLEAR     -5 -11  75 NW3       30.51R
CRYSTAL        PTCLDY    -8 -14  74 CALM      30.47R
BLAINE         PTCLDY    -9 -15  77 CALM      30.46R
LAKEVILLE      CLEAR    -15 -18  84 W2        30.47R
EDEN PRAIRIE   PTCLDY    -9 -14  78 CALM      30.47R
SOUTH ST PAUL  CLEAR     -6 -11  77 CALM      30.49R
LAKE ELMO      FAIR     -13 -17  84 CALM      30.48R
$$
MNZ001>005-007-008-013>017-022>024-027-028-051400-
   Northwest Minnesota

CITY           SKY/WX    TMP DP  RH WIND       PRES   REMARKS
BEMIDJI        FAIR     -15 -19  80 SW3       30.30F
HALLOCK        PTCLDY   -15 -20  76 S9        30.31S WCI -33
ROSEAU         PTCLDY   -15 -20  76 S8        30.28F WCI -32
WARROAD        MOCLDY   -15 -20  76 S7        30.27S WCI -31
THIEF RVR FALL PTCLDY   -15 N/A N/A S8        30.30F WCI -32
CROOKSTON      PTCLDY   -11 -17  77 S7        30.37S WCI -26
FOSSTON        PTCLDY   -20 -26  76 S7        30.33S WCI -37
DETROIT LAKES  FAIR     -11 -15  84 SW3       30.35S
MOORHEAD       PTCLDY    -8 -11  84 S6        30.40F WCI -21
PARK RAPIDS    MOCLDY   -19 -26  70 CALM      30.33R
MAHNOMEN       FAIR     -13 -17  79 S8        30.34F WCI -30
$$
MNZ006-009>011-018-025>026-051400-
   North Central Minnesota

CITY           SKY/WX    TMP DP  RH WIND       PRES   REMARKS
BAUDETTE       CLOUDY   -18 -24  74 SW5       30.27F WCI -31
FLAG ISLAND    PTCLDY   -18 -24  76 S3        30.26S
INTL FALLS     PTCLDY   -23 -28  78 SW7       30.30F WCI -41
WASKISH        MOCLDY   -15 -18  84 CALM      30.30F
BIG FORK       PTCLDY   -29 -36  68 CALM      30.31F
LONGVILLE      MOCLDY   -29 -36  68 CALM      30.35R
GRAND RAPIDS   MOCLDY   -22 -26  83 CALM      30.31S
CRANE LAKE     PTCLDY   -29 -36  68 CALM      30.35S
ORR            PTCLDY   -18 -26  69 CALM      30.28S
COOK           PTCLDY   -33 -38  75 CALM      30.31S
WALKER         FAIR     -19 -24  76 CALM      30.32F
$$
MNZ012-019>021-037-051400-
   Northeast Minnesota

CITY           SKY/WX    TMP DP  RH WIND       PRES   REMARKS
DULUTH         MOCLDY   -13 -19  75 NW9       30.32R WCI -31
ELY            MOCLDY   -26 -31  75 CALM      30.30S
HIBBING        PTCLDY   -30  32 100 CALM      30.33R
EVELETH        MOCLDY   -27 -35  68 CALM      30.33R
DULUTH HARBOR  PTCLDY   -15 -18  84 CALM      30.45R
TWO HARBORS    PTCLDY   -11 -20  64 CALM      30.32S
SILVER BAY     PTCLDY   -22 -27  76 CALM      30.31F
GRAND MARAIS     N/A     -4 -15  59 VRB3      30.37R
G MARAIS ARPRT CLEAR    -18 -24  76 NW5       30.21S WCI -31
$$
MNZ029>031-032-039>041-046>048-054>057-064-051400-
   West Central Minnesota

CITY           SKY/WX    TMP DP  RH WIND       PRES   REMARKS
FERGUS FALLS   MOCLDY   -15 -20  76 S6        30.45S WCI -29
WHEATON        MOCLDY   -15 -20  76 S7        30.44F WCI -31
MORRIS         MOCLDY   -17 -20  83 CALM      30.42S
ALEXANDRIA     CLOUDY   -16 -20  82 SW7       30.38S WCI -32
ELBOW LAKE     FAIR     -16 -20  79 S5        30.40S WCI -28
WADENA         MOCLDY   -17 -20  83 W6        30.36R WCI -31
GLENWOOD       CLOUDY   -18 -24  76 SW3       30.41R
APPLETON       MOCLDY   -15 -20  76 SW3       30.46S
BENSON         MOCLDY   -17 -20  83 CALM      30.43F
ORTONVILLE     MOCLDY   -11 -18  70 SW3       30.43S
MADISON        PTCLDY    -9 -17  70 CALM      30.46S
WILLMAR        FAIR      -9 -17  70 SW5       30.45S WCI -21
$$
MNZ033>034-036-042>043-049>051-058-059-051400-
   Central Minnesota

CITY           SKY/WX    TMP DP  RH WIND       PRES   REMARKS
ST CLOUD       PTCLDY   -16 -22  74 CALM      30.44R
SAUK CENTRE    FAIR     -18 -22  80 S3        30.42R
PAYNESVILLE    MOCLDY   -19 -23  80 S5        30.44R WCI -32
AITKIN         MOCLDY   -20 -27  69 CALM      30.37R
PINE RIVER     MOCLDY   -27 -33  75 CALM      30.38S
BRAINERD       MOCLDY   -22 -28  74 CALM      30.39R
STAPLES        MOCLDY   -26 -31  75 CALM      30.37S
LONG PRAIRIE   FAIR     -22 -27  76 CALM      30.39S
LITTLE FALLS   MOCLDY   -24 -31  69 CALM      30.43R
LITCHFIELD     PTCLDY   -11 -17  77 CALM      30.46R
BUFFALO        PTCLDY   -13 -19  78 CALM      30.48R
MAPLE LAKE     PTCLDY   -15 -19  80 CALM      30.46R
$$
MNZ037-044-045-052-053-051400-
   East Central Minnesota

CITY           SKY/WX    TMP DP  RH WIND       PRES   REMARKS
PRINCETON      PTCLDY   -18 -24  76 CALM      30.44S
MORA           MOCLDY   -24 -31  69 CALM      30.44S
CAMBRIDGE      PTCLDY   -17 -26  63 CALM      30.43S
RUSH CITY      PTCLDY   -19 -25  75 CALM      30.45R
MOOSE LAKE     MOCLDY   -24 -31  69 CALM      30.38S
HINCKLEY       FAIR     -24 -29  76 CALM      30.43R
CLOQUET        FAIR     -17 -22  76 W7        30.35R WCI -33
MCGREGOR       MOCLDY   -15 -18  84 S3        30.38S
$$
MNZ071>073-080-081-089-090-097-098-051400-
   Southwest Minnesota

CITY           SKY/WX    TMP DP  RH WIND       PRES   REMARKS
MONTEVIDEO     MOCLDY    -9 -15  77 W5        30.47S WCI -21
GRANITE FALLS  PTCLDY   -11 -16  78 S5        30.48F WCI -23
CANBY          PTCLDY    -7 -14  71 SW3       30.45S
MARSHALL       MOCLDY    -9 -17  70 SW5       30.45S WCI -21
REDWOOD FALLS  PTCLDY    -8 -14  74 W5        30.48R WCI -19
OLIVIA         CLEAR    -11 -17  77 W3        30.47S
PIPESTONE      PTCLDY   -15 -18  84 SW3       30.40R
WINDOM         FAIR      -9 -15  77 CALM      30.44S
WORTHINGTON    PTCLDY    -9 -15  77 W3        30.45R
JACKSON        CLEAR     -8 -15  71 W5        30.45R WCI -19
TRACY          PTCLDY    -8 -15  73 SW6       30.45S WCI -22
SLAYTON        PTCLDY   -10 -17  73 CALM      30.42S
$$
MNZ065>067-074>077-082>085-091>093-051400-
   South Central Minnesota

CITY           SKY/WX    TMP DP  RH WIND       PRES   REMARKS
MANKATO        PTCLDY    -8 -24  45 W3        30.47R
NEW ULM        CLEAR    -13 -18  77 W6        30.48S WCI -27
ST JAMES       CLEAR     -8 -15  71 W5        30.49S WCI -19
FAIRMONT       CLEAR     -6 -11  77 W3        30.46R
GLENCOE        PTCLDY   -10 -14  82 MISG      30.47R
FARIBAULT      CLEAR    -11 -17  77 CALM      30.47R
OWATONNA       CLEAR    -11 -18  70 SW5       30.46R WCI -23
WASECA         CLEAR    -11 -17  77 CALM      30.48R
ALBERT LEA     CLEAR     -9 -15  77 CALM      30.45R
$$
MNZ078>079-086>088-094>096-051400-
   Southeast Minnesota

CITY           SKY/WX    TMP DP  RH WIND       PRES   REMARKS
ROCHESTER      PTCLDY   -12 -16  82 W8        30.42R WCI -29
RED WING       CLEAR    -15 -22  70 NW5       30.48R WCI -27
STANTON        CLEAR    -10 -15  76 SW3       30.47R
DODGE CENTER   PTCLDY    -9 -13  84 W7        30.41R WCI -24
WINONA         CLEAR     -6 -11  77 CALM      30.50S
AUSTIN         PTCLDY    -8 -11  84 W7        30.45R WCI -22
PRESTON        PTCLDY   -12 -16  80 W6        30.43R WCI -25
$$
ABBREVIATIONS USED IN REMARKS
   TC - TEMPERATURES IN CELSIUS
  WCI - WIND CHILL INDEX
   HX - HEAT INDEX
  VSB - VISIBILITY
$$


USA.gov is the U.S. government's official web portal to all federal, state and local government web resources and services.